{"data":{"norad_id":55455,"epoch":"2026-09-20T13:59:35.894976Z","epoch_age_seconds":92954,"freshness":"FRESH","line1":"1 55455U 23015G   26263.58305434 -.00000168  00000+0  34420-5 0  9999","line2":"2 55455  43.0047 308.4819 0001647 298.3789  61.6897 15.27576536200524","mean_motion":15.27576536,"eccentricity":0.0001647,"inclination_deg":43.0047,"raan_deg":308.4819,"arg_perigee_deg":298.3789,"mean_anomaly_deg":61.6897,"bstar":3.442e-6,"rev_number":20052,"period_min":94.266962477093,"perigee_km":481.92942946306,"apogee_km":484.18950757979,"semimajor_km":6861.1964685214,"source":"CELESTRAK","updated_at":"2026-09-21T09:00:33.226841Z"}}